Home > Weather > Lethbridge > Past weeks

Flag for Canada Past Weather in Lethbridge, Alberta, Canada — Yesterday and Last 2 Weeks

Now
79 °F

Passing clouds.


Feels Like: 79 °F
Forecast: 60 / 83 °F
Wind: 7 mph from Northeast

Location: Lethbridge

Current Time: Jul 30, 2016 at 2:50:57 PM

Latest Report: Jul 30, 2016 at 2:00 PM


Visibility: 40 mi

Pressure: 29.71 "Hg (26.89 "Hg at 872m altitude)

Humidity: 45%

Dew Point: 55 °F

Location of LethbridgeLocation

Past Weather in Lethbridge — Graph

°F

Lethbridge Temperature Yesterday

Maximum temperature yesterday: 81 °F (at 4:00 PM)
Minimum temperature yesterday: 54 °F (at 6:00 AM)
Average temperature yesterday: 68 °F

High & Low Weather Summary for the Past Weeks

 TemperatureHumidityPressure
High84 °F (Jul 21, 4:00 PM)100% (Jul 16, 12:00 AM)30.18 "Hg (Jul 16, 12:00 AM)
Low48 °F (Jul 17, 2:00 AM)15% (Jul 21, 6:00 PM)29.70 "Hg (Jul 30, 5:00 AM)
Average66 °F66%30.00 "Hg
* Reported Jul 15 1:00 PM — Jul 30 1:00 PM, Lethbridge, Weather by CustomWeather, © 2016

Note: Actual official high and low records may vary slightly from our data, if they occured in-between our weather recording intervals... More about our weather records

Advertising

Lethbridge Weather History for the Previous 24 Hours

Scroll right to see more
 ConditionsComfort  
Time TempWeatherWind HumidityBarometerVisibility
1:00 PM
Sat, Jul 30
77 °FPassing clouds.8 mph47%29.72 "Hg40 mi
12:00 PM75 °FPassing clouds.5 mph54%29.74 "Hg40 mi
11:00 AM72 °FPassing clouds.2 mph61%29.76 "Hg40 mi
10:00 AM72 °FPartly sunny.7 mph61%29.75 "Hg40 mi
9:00 AM68 °FBroken clouds.3 mph69%29.78 "Hg40 mi
8:00 AM64 °FBroken clouds.12 mph78%29.75 "Hg40 mi
7:00 AM63 °FBroken clouds.No wind77%29.73 "Hg40 mi
6:00 AM64 °FThunderstorms. Partly cloudy.7 mph68%29.72 "Hg20 mi
5:46 AM64 °FThunderstorms. Partly cloudy.9 mph68%29.73 "Hg20 mi
5:00 AM64 °FClear.12 mph64%29.70 "Hg9 mi
4:00 AM63 °FClear.12 mph73%29.72 "Hg9 mi
3:00 AM61 °FClear.7 mph77%29.74 "Hg9 mi
2:00 AM59 °FClear.8 mph82%29.77 "Hg9 mi
1:00 AM59 °FClear.12 mph88%29.80 "Hg9 mi
12:00 AM61 °FClear.14 mph83%29.83 "Hg9 mi
11:00 PM
Fri, Jul 29
63 °FClear.16 mph83%29.84 "Hg9 mi
10:00 PM64 °FPassing clouds.7 mph83%29.86 "Hg15 mi
9:00 PM70 °FPassing clouds.7 mph78%29.88 "Hg40 mi
8:00 PM77 °FPassing clouds.7 mph57%29.88 "Hg40 mi
7:00 PM81 °FPassing clouds.8 mph42%29.90 "Hg40 mi
6:00 PM81 °FPassing clouds.7 mph34%29.92 "Hg40 mi
5:00 PM81 °FPassing clouds.9 mph34%29.93 "Hg40 mi
4:00 PM81 °FPassing clouds.8 mph37%29.96 "Hg40 mi
3:00 PM79 °FPassing clouds.7 mph37%29.98 "Hg40 mi
2:00 PM77 °FPassing clouds.No wind39%30.01 "Hg40 mi
Weather by CustomWeather, © 2016

See weather overviewHow to use our weather pages